Change the Weather History Date:

Tuesday, November 6, 2012

  Actual Average Record
Temperature  
Mean Temperature 37 °F -  
Max Temperature 41 °F 43 °F 72 °F (1975)
Min Temperature 33 °F 25 °F -47 °F (2008)
Degree Days  
Heating Degree Days 28    
Moisture  
Dew Point 35 °F    
Average Humidity 90    
Maximum Humidity 100    
Minimum Humidity 81    
Precipitation  
Precipitation 0.10 in - - ()
Sea Level Pressure  
Sea Level Pressure 29.85 in    
Wind  
Wind Speed 15 mph (WNW)    
Max Wind Speed 26 mph    
Max Gust Speed 33 mph    
Visibility 8 miles    
Events Rain    
Averages and records for this station are not official NWS values.
T = Trace of Precipitation, MM = Missing Value Source: NWS Daily Summary

Daily Weather History Graph

Daily Weather History Graph

Search for Another Location

Airport or City:

Trip Planner

Search our weather history database for the weather conditions in past years. The results will help you decide how hot, cold, wet, or windy it might be!

Date:

Astronomy

Nov. 06, 2012 Rise Set
Actual Time 7:08 AM CST 5:00 PM CST
Civil Twilight 6:37 AM CST 5:31 PM CST
Nautical Twilight 6:01 AM CST 6:07 PM CST
Astronomical Twilight 5:27 AM CST 6:41 PM CST
Moon 11:44 PM CST (11/6) 12:58 PM CST (11/6)
Length of Visible Light 10h 54m
Length of Day
9h 51m
Waning Gibbous, 53% of the Moon is Illuminated
Nov 6
Waning Gibbous
Nov 6
Last Quarter
Nov 13
New
Nov 20
First Quarter
Nov 28
Full

Hourly Weather History & Observations

Time (CST) Temp. Windchill Dew Point Humidity Pressure Visibility Wind Dir Wind Speed Gust Speed Precip Events Conditions
12:14 AM 33.8 °F 24.3 °F 33.8 °F 100% 29.84 in 3.0 mi South 13.8 mph - 0.02 in   Mostly Cloudy
12:33 AM 33.8 °F 23.9 °F 33.8 °F 100% 29.82 in 3.0 mi South 15.0 mph - 0.04 in   Mostly Cloudy
12:53 AM 35.6 °F 25.5 °F 33.8 °F 93% 29.80 in 3.0 mi South 17.3 mph - 0.04 in   Mostly Cloudy
1:13 AM 35.6 °F 26.2 °F 33.8 °F 93% 29.80 in 3.0 mi South 15.0 mph 21.9 mph 0.02 in Rain Light Rain
1:33 AM 35.6 °F 25.5 °F 33.8 °F 93% 29.79 in 3.0 mi South 17.3 mph - 0.04 in Rain Light Rain
1:54 AM 35.6 °F 26.6 °F 35.6 °F 100% 29.79 in 3.0 mi SSW 13.8 mph 20.7 mph 0.06 in Rain Light Rain
2:13 AM 35.6 °F 26.2 °F 35.6 °F 100% 29.78 in 4.0 mi SSW 15.0 mph 20.7 mph N/A Rain Rain
2:33 AM 35.6 °F 27.5 °F 35.6 °F 100% 29.77 in 5.0 mi SSW 11.5 mph 16.1 mph N/A Rain Light Rain
2:53 AM 35.6 °F 27.5 °F 35.6 °F 100% 29.77 in 4.0 mi SSW 11.5 mph - N/A   Overcast
3:13 AM 35.6 °F 28.0 °F 35.6 °F 100% 29.76 in 2.5 mi SSW 10.4 mph - N/A   Overcast
3:33 AM 35.6 °F 28.6 °F 35.6 °F 100% 29.76 in 3.0 mi SSW 9.2 mph - N/A   Overcast
3:54 AM 37.4 °F 30.8 °F 35.6 °F 93% 29.76 in 4.0 mi WSW 9.2 mph - N/A   Overcast
4:13 AM 37.4 °F 29.8 °F 37.4 °F 100% 29.75 in 5.0 mi WSW 11.5 mph 17.3 mph N/A   Overcast
4:33 AM 37.4 °F 30.3 °F 37.4 °F 100% 29.76 in 5.0 mi West 10.4 mph - N/A   Overcast
4:54 AM 39.2 °F 30.5 °F 37.4 °F 93% 29.75 in 10.0 mi West 16.1 mph 20.7 mph N/A   Overcast
5:13 AM 37.4 °F 29.8 °F 37.4 °F 100% 29.76 in 10.0 mi West 11.5 mph 19.6 mph N/A   Scattered Clouds
5:33 AM 37.4 °F 28.2 °F 35.6 °F 93% 29.76 in 10.0 mi WNW 16.1 mph 26.5 mph N/A   Mostly Cloudy
5:54 AM 37.4 °F 28.5 °F 35.6 °F 93% 29.76 in 10.0 mi West 15.0 mph - N/A   Scattered Clouds
6:13 AM 35.6 °F 25.9 °F 33.8 °F 93% 29.77 in 10.0 mi West 16.1 mph 20.7 mph N/A   Clear
6:33 AM 35.6 °F 25.9 °F 33.8 °F 93% 29.77 in 10.0 mi West 16.1 mph 20.7 mph N/A   Clear
6:54 AM 35.6 °F 25.2 °F 33.8 °F 93% 29.78 in 10.0 mi West 18.4 mph 26.5 mph N/A   Clear
7:13 AM 35.6 °F 26.2 °F 33.8 °F 93% 29.79 in 10.0 mi West 15.0 mph 21.9 mph N/A   Scattered Clouds
7:33 AM 35.6 °F 26.6 °F 33.8 °F 93% 29.80 in 10.0 mi West 13.8 mph - N/A   Mostly Cloudy
7:53 AM 35.6 °F 26.2 °F 33.8 °F 93% 29.80 in 10.0 mi West 15.0 mph - N/A   Overcast
8:13 AM 35.6 °F 26.2 °F 33.8 °F 93% 29.81 in 10.0 mi West 15.0 mph - N/A   Overcast
8:33 AM 37.4 °F 27.8 °F 33.8 °F 87% 29.81 in 10.0 mi West 17.3 mph - N/A   Overcast
8:53 AM 37.4 °F 27.8 °F 33.8 °F 87% 29.81 in 10.0 mi WNW 17.3 mph 23.0 mph N/A   Overcast
9:13 AM 37.4 °F 28.2 °F 33.8 °F 87% 29.82 in 10.0 mi West 16.1 mph 19.6 mph N/A   Overcast
9:33 AM 37.4 °F 28.2 °F 35.6 °F 93% 29.82 in 10.0 mi West 16.1 mph - N/A   Overcast
9:53 AM 37.4 °F 28.2 °F 35.6 °F 93% 29.82 in 10.0 mi West 16.1 mph 20.7 mph N/A   Overcast
10:13 AM 37.4 °F 28.2 °F 35.6 °F 93% 29.82 in 5.0 mi West 16.1 mph 23.0 mph N/A   Overcast
10:33 AM 37.4 °F 27.5 °F 35.6 °F 93% 29.82 in 5.0 mi WNW 18.4 mph 25.3 mph N/A   Overcast
10:53 AM 39.2 °F 28.7 °F 35.6 °F 87% 29.82 in 10.0 mi WNW 23.0 mph 28.8 mph N/A   Overcast
11:13 AM 39.2 °F 29.8 °F 35.6 °F 87% 29.83 in 10.0 mi WNW 18.4 mph 25.3 mph N/A   Overcast
11:34 AM 39.2 °F 29.3 °F 35.6 °F 87% 29.82 in 10.0 mi WNW 20.7 mph 26.5 mph N/A   Overcast
11:53 AM 41.0 °F 30.5 °F 35.6 °F 81% 29.82 in 10.0 mi WNW 26.5 mph 31.1 mph N/A   Mostly Cloudy
12:13 PM 41.0 °F 31.4 °F 35.6 °F 81% 29.82 in 10.0 mi WNW 21.9 mph 31.1 mph N/A   Overcast
12:34 PM 41.0 °F 30.7 °F 35.6 °F 81% 29.82 in 10.0 mi WNW 25.3 mph 32.2 mph N/A   Overcast
12:53 PM 41.0 °F 31.6 °F 35.6 °F 81% 29.82 in 10.0 mi WNW 20.7 mph 28.8 mph N/A   Overcast
1:13 PM 39.2 °F 29.6 °F 35.6 °F 87% 29.82 in 10.0 mi WNW 19.6 mph 26.5 mph N/A   Overcast
1:34 PM 39.2 °F 29.6 °F 35.6 °F 87% 29.82 in 10.0 mi WNW 19.6 mph 31.1 mph N/A   Overcast
1:53 PM 39.2 °F 29.6 °F 35.6 °F 87% 29.83 in 10.0 mi WNW 19.6 mph 27.6 mph N/A   Overcast
2:13 PM 41.0 °F 32.8 °F 35.6 °F 81% 29.83 in 10.0 mi WNW 16.1 mph 28.8 mph N/A   Overcast
2:34 PM 41.0 °F 31.4 °F 35.6 °F 81% 29.84 in 10.0 mi NW 21.9 mph 33.4 mph N/A   Overcast
2:53 PM 41.0 °F 30.9 °F 35.6 °F 81% 29.84 in 10.0 mi WNW 24.2 mph 32.2 mph N/A   Overcast
3:13 PM 39.2 °F 29.6 °F 35.6 °F 87% 29.85 in 7.0 mi NW 19.6 mph 31.1 mph N/A   Drizzle
3:34 PM 39.2 °F 29.0 °F 35.6 °F 87% 29.86 in 7.0 mi NW 21.9 mph 33.4 mph N/A   Overcast
3:53 PM 39.2 °F 30.5 °F 37.4 °F 93% 29.87 in 10.0 mi NW 16.1 mph 26.5 mph N/A   Overcast
4:13 PM 39.2 °F 30.8 °F 35.6 °F 87% 29.88 in 10.0 mi NW 15.0 mph 23.0 mph N/A   Overcast
4:34 PM 39.2 °F 29.6 °F 35.6 °F 87% 29.89 in 10.0 mi NW 19.6 mph 28.8 mph N/A   Light Drizzle
4:53 PM 39.2 °F 29.8 °F 37.4 °F 93% 29.89 in 10.0 mi NW 18.4 mph 25.3 mph N/A Rain Light Rain
5:34 PM 39.2 °F 29.8 °F 35.6 °F 87% 29.91 in 10.0 mi NW 18.4 mph 27.6 mph N/A   Overcast
5:53 PM 39.2 °F 30.8 °F 35.6 °F 87% 29.92 in 10.0 mi NW 15.0 mph 28.8 mph N/A   Overcast
6:13 PM 39.2 °F 29.8 °F 35.6 °F 87% 29.92 in 10.0 mi NW 18.4 mph 25.3 mph N/A   Overcast
6:33 PM 39.2 °F 29.8 °F 35.6 °F 87% 29.93 in 10.0 mi NW 18.4 mph 24.2 mph N/A   Overcast
6:53 PM 39.2 °F 31.6 °F 35.6 °F 87% 29.94 in 10.0 mi NW 12.7 mph 23.0 mph N/A   Light Drizzle
7:13 PM 39.2 °F 31.6 °F 35.6 °F 87% 29.94 in 10.0 mi NW 12.7 mph - N/A   Overcast
7:33 PM 39.2 °F 31.6 °F 35.6 °F 87% 29.95 in 10.0 mi NW 12.7 mph - N/A   Overcast
7:53 PM 39.2 °F 31.6 °F 35.6 °F 87% 29.95 in 10.0 mi NW 12.7 mph - N/A   Overcast
8:13 PM 39.2 °F 30.5 °F 35.6 °F 87% 29.95 in 10.0 mi NNW 16.1 mph 25.3 mph N/A   Overcast
8:33 PM 39.2 °F 29.8 °F 33.8 °F 81% 29.96 in 10.0 mi NNW 18.4 mph 27.6 mph N/A   Overcast
8:53 PM 39.2 °F 32.0 °F 33.8 °F 81% 29.96 in 10.0 mi NW 11.5 mph - N/A   Overcast
9:14 PM 39.2 °F 30.5 °F 33.8 °F 81% 29.97 in 10.0 mi NW 16.1 mph - N/A   Overcast
9:33 PM 39.2 °F 31.2 °F 33.8 °F 81% 29.98 in 10.0 mi NW 13.8 mph - N/A   Overcast
9:53 PM 39.2 °F 32.5 °F 33.8 °F 81% 29.98 in 10.0 mi NW 10.4 mph - N/A   Overcast
10:14 PM 39.2 °F 32.0 °F 33.8 °F 81% 29.98 in 10.0 mi NW 11.5 mph - N/A   Overcast
10:33 PM 39.2 °F 32.0 °F 33.8 °F 81% 29.99 in 10.0 mi NNW 11.5 mph 17.3 mph N/A   Overcast
10:53 PM 39.2 °F 33.0 °F 35.6 °F 87% 29.99 in 10.0 mi NW 9.2 mph - N/A   Overcast
11:14 PM 39.2 °F 32.5 °F 33.8 °F 81% 30.00 in 10.0 mi NW 10.4 mph - N/A   Overcast
11:33 PM 37.4 °F 32.1 °F 35.6 °F 93% 30.00 in 10.0 mi NW 6.9 mph - N/A   Overcast
11:53 PM 37.4 °F 30.8 °F 33.8 °F 87% 30.00 in 10.0 mi NW 9.2 mph - N/A   Overcast